Theta_e
335 327 320 318 317 316 317 320 323 325 324 321 320 318 318 318 317 316 315 314 314 313 310 308 307 306 306 306 307 309 308 310 309 307 308 309 311 314 314 314 315 321 324
336 328 322 320 318 317 317 321 323 324 322 321 320 319 319 318 317 315 314 314 314 314 312 309 307 306 305 306 306 307 307 307 308 308 310 311 310 313 314 315 314 317 322
333 329 323 321 320 319 320 321 323 324 323 322 320 319 320 319 317 315 315 315 314 314 313 309 306 305 307 308 308 308 308 308 308 310 311 310 311 312 313 315 314 314 320
330 328 324 322 321 322 323 323 325 325 324 323 320 320 320 320 319 316 316 316 314 314 313 308 305 307 308 307 307 307 308 308 309 311 311 311 311 311 312 313 315 315 317
328 326 325 323 323 325 325 325 326 325 323 321 321 321 321 322 321 317 318 317 314 314 310 305 307 307 307 306 306 306 307 307 308 309 312 312 311 311 311 312 314 316 316
327 326 325 324 325 326 326 326 323 320 321 322 322 322 322 322 322 318 318 315 314 311 306 306 307 306 306 305 306 306 306 306 306 306 307 308 309 309 310 310 312 314 317
329 328 327 326 327 326 325 323 320 322 323 324 323 323 323 322 321 318 317 314 310 306 306 306 306 305 306 307 307 307 305 305 306 306 306 306 306 307 309 311 311 312 314
330 330 329 327 328 326 324 322 323 324 325 325 325 324 323 321 319 317 314 309 306 306 306 306 305 306 307 309 309 309 309 307 306 305 305 305 306 307 307 308 309 310 312
331 330 329 329 328 327 324 323 324 325 326 326 325 323 321 319 318 314 309 306 306 306 306 305 306 308 311 311 309 307 308 310 309 306 305 305 305 306 307 308 309 310 310
327 329 329 328 327 326 325 325 326 326 326 325 323 320 319 318 315 310 306 306 305 305 306 306 309 311 311 312 311 310 312 314 311 310 308 306 306 306 307 307 308 309 309
324 324 325 326 326 326 326 326 326 325 323 320 320 319 319 315 310 306 306 305 305 306 307 309 311 313 313 314 313 312 314 314 313 311 312 311 308 307 308 309 309 308 309
321 321 322 323 324 324 324 322 320 319 319 319 320 317 313 308 306 305 305 305 307 308 310 310 312 314 314 314 315 315 314 313 313 312 312 313 313 312 310 310 310 310 310
316 316 317 317 318 319 319 319 320 320 320 319 317 312 306 305 305 305 306 308 310 310 311 312 314 314 314 315 315 315 314 314 312 311 312 313 313 314 312 311 311 311 311
314 317 318 315 316 315 318 318 318 317 314 311 308 305 304 305 305 306 308 310 311 312 312 313 312 313 314 314 314 314 314 313 311 310 309 309 308 308 310 311 309 311 312
315 315 315 315 316 317 317 317 317 311 309 306 304 304 304 305 306 308 309 310 311 311 310 309 311 312 313 313 313 312 310 308 306 305 304 304 304 304 304 306 307 309 310
318 318 317 316 316 315 313 312 311 310 308 304 304 304 305 306 307 309 309 309 310 309 308 310 311 312 312 311 311 308 304 303 303 303 303 303 303 302 302 302 305 307 310
315 315 315 314 313 311 309 307 305 303 303 304 304 305 306 306 307 308 308 307 308 309 310 311 311 310 310 310 305 302 302 302 302 302 302 303 303 303 302 302 303 305 310
313 312 312 311 309 306 304 303 303 303 304 304 304 305 306 306 307 306 305 307 308 310 309 310 310 311 310 305 302 301 300 300 301 302 302 302 303 303 302 302 302 305 308
311 310 308 306 303 302 302 302 303 303 303 303 304 305 305 305 305 305 306 306 307 308 310 310 311 309 306 303 300 299 300 301 303 303 304 303 303 303 303 302 302 304 309
308 306 304 303 302 302 302 302 301 301 302 302 302 302 303 304 307 307 306 306 307 308 309 310 309 307 302 299 300 302 306 308 307 306 305 304 304 303 303 303 303 303 306
304 302 302 301 301 301 301 300 300 300 300 300 300 300 300 301 303 303 304 305 307 308 309 307 305 302 300 300 302 307 309 309 307 305 304 303 304 304 304 304 303 305 309
302 302 301 300 300 299 299 299 299 299 298 298 299 300 301 301 302 303 304 306 308 309 307 304 303 302 301 304 308 311 310 309 307 304 303 303 304 304 303 303 303 306 309
302 302 301 299 299 298 299 298 298 297 298 299 300 300 301 301 302 303 305 307 308 308 307 308 305 304 307 311 312 312 311 309 308 304 302 302 302 302 302 303 304 307 310
302 301 299 298 299 298 298 297 297 298 298 299 299 300 300 301 302 303 304 306 307 307 309 308 305 306 313 313 314 313 312 310 307 306 304 306 304 307 308 309 309 309 309
300 299 299 298 298 297 296 297 298 298 298 298 298 299 299 300 301 302 304 306 306 308 309 308 307 311 315 314 313 314 313 312 308 309 309 309 309 310 309 310 314 312 311
298 298 298 296 296 296 297 297 297 297 297 297 297 297 298 298 299 301 303 305 306 307 307 308 308 311 316 315 315 314 314 315 315 311 312 311 312 313 315 313 313 314 313
Wind_Speed
63 56 51 47 39 32 30 28 25 21 19 18 13 10 8 8 10 12 14 16 18 19 21 22 22 22 23 22 22 22 24 25 33 39 35 31 20 22 16 15 15 15 15
63 58 54 44 39 33 29 27 24 21 20 17 13 12 10 9 10 12 16 19 22 23 24 25 25 26 26 26 26 27 29 29 30 36 34 33 23 21 18 16 13 15 16
61 59 53 43 37 30 26 26 24 22 19 17 16 14 11 11 11 14 19 24 27 28 28 29 29 30 30 28 27 29 29 29 28 29 33 30 25 24 19 16 14 13 15
56 56 47 41 34 28 26 26 24 20 19 19 17 15 15 13 14 18 24 30 31 32 33 33 31 30 30 29 29 29 29 28 26 27 29 31 29 24 23 19 14 11 14
49 44 41 39 31 28 27 26 23 21 21 20 19 19 15 13 18 22 29 34 35 36 35 33 30 30 30 30 31 31 29 28 25 27 27 29 27 24 21 18 14 9 11
35 38 37 38 32 29 27 26 23 24 23 22 20 18 16 18 22 26 32 36 37 36 36 33 30 32 33 33 32 30 27 28 28 28 32 33 33 33 26 21 15 13 7
27 30 35 38 33 30 28 27 25 24 23 22 20 19 20 22 26 30 35 38 37 36 35 34 35 36 36 35 34 33 31 30 29 30 31 28 27 29 24 20 16 17 16
22 27 32 34 32 30 29 27 26 26 24 22 22 22 22 23 28 34 37 37 36 34 35 36 37 39 34 33 31 29 27 28 28 31 32 31 28 23 25 28 25 22 21
13 20 26 29 29 28 27 27 26 25 23 22 21 21 23 25 32 36 36 36 36 37 37 36 38 37 31 28 28 29 27 29 27 24 26 28 26 23 21 23 24 25 26
14 17 18 18 20 21 22 24 23 21 20 21 20 22 25 31 34 34 33 36 38 39 39 40 34 31 30 28 29 27 30 30 27 26 26 24 23 25 24 25 28 30 29
10 5 9 15 18 19 17 17 17 18 18 19 20 25 30 33 31 31 32 34 37 40 41 38 32 30 30 30 28 28 30 28 29 30 31 30 29 28 27 28 28 30 31
9 10 10 8 8 12 13 14 13 13 16 21 25 29 31 28 29 32 32 32 34 37 37 36 35 32 32 29 30 31 31 30 31 33 34 34 33 32 29 28 30 32 33
8 10 8 6 9 10 11 13 13 16 20 24 28 31 30 28 29 30 31 30 30 32 33 35 34 34 33 32 32 34 34 35 35 36 37 39 36 35 32 33 31 28 30
9 9 14 11 19 10 9 11 13 16 19 23 25 25 27 27 27 27 29 27 28 29 32 33 35 35 34 37 37 37 39 40 40 41 41 40 37 35 36 35 35 35 31
25 20 20 17 16 11 13 15 16 19 19 22 25 26 27 29 26 23 26 29 29 29 32 35 36 36 37 38 41 43 41 38 36 35 34 33 33 33 35 35 33 36 38
15 16 15 13 10 9 12 13 16 21 23 21 18 21 23 26 26 24 25 28 28 29 32 35 36 37 39 41 44 44 40 38 39 37 35 33 31 31 31 31 33 40 43
12 12 10 11 12 13 14 15 13 13 13 13 16 18 22 25 23 25 27 28 27 28 30 32 35 37 40 42 42 40 38 37 36 38 38 36 33 32 31 31 34 40 42
12 12 11 11 11 12 12 12 10 12 13 12 13 17 19 22 22 23 24 26 28 28 30 33 36 41 43 42 41 39 39 37 34 31 31 34 35 34 33 33 34 39 42
8 9 9 9 8 8 7 6 7 9 12 15 16 17 20 23 23 23 24 26 30 32 33 34 36 38 41 40 37 36 34 31 27 25 25 26 33 34 36 34 33 38 38
11 10 7 5 5 3 3 4 7 10 12 16 17 20 22 23 23 25 26 28 29 32 33 34 37 38 38 38 36 33 28 24 23 24 25 26 29 36 35 35 34 36 39
7 5 3 1 0 1 3 5 8 11 14 17 19 19 20 22 23 24 25 26 28 30 31 34 35 36 36 35 32 25 22 23 20 21 24 28 28 36 34 33 32 36 32
8 5 4 2 1 1 3 6 8 12 16 17 18 17 17 19 19 21 22 23 25 26 29 31 34 35 33 28 21 16 18 20 20 17 14 13 22 30 31 29 28 40 32
9 5 3 4 3 2 4 8 11 13 13 14 15 17 18 18 19 19 20 21 23 27 28 31 34 30 22 17 13 14 16 21 15 7 7 11 17 21 24 27 33 39 34
8 3 4 5 2 3 7 9 10 11 13 14 16 17 19 21 22 21 20 21 24 25 27 31 30 23 15 13 12 15 13 10 4 6 5 7 16 11 21 26 27 36 37
10 7 7 4 1 4 6 10 14 16 18 20 22 24 25 24 25 27 25 25 27 28 29 32 31 17 11 11 10 15 13 15 6 8 11 15 15 24 19 23 28 41 43
12 10 7 5 8 12 14 17 19 20 22 24 26 28 29 32 33 32 32 32 33 32 33 35 35 23 9 8 6 6 10 14 9 9 12 12 13 11 25 32 29 36 41
Wind_Direction
214 213 214 213 209 208 214 218 220 223 232 231 240 256 262 283 304 316 320 322 321 320 321 321 321 319 317 311 306 303 302 300 297 303 309 312 312 309 306 297 283 268 265
216 215 216 210 206 205 212 217 221 225 223 231 242 248 251 276 303 318 323 321 319 316 316 316 317 316 314 312 310 305 300 297 293 294 304 308 310 306 304 297 293 263 262
219 217 215 207 204 204 209 216 219 218 220 229 236 236 249 271 298 315 319 320 317 315 314 313 315 314 312 312 308 304 302 298 291 287 295 300 301 309 302 291 294 277 256
221 217 210 205 202 202 208 213 214 214 219 220 225 230 246 270 298 310 315 316 314 312 311 310 312 310 309 310 305 303 304 299 291 286 288 291 293 300 302 300 290 287 248
221 212 206 202 197 200 208 211 208 209 210 212 220 232 250 284 298 302 309 311 309 307 306 307 307 307 307 305 302 302 300 294 286 277 277 285 287 288 293 299 282 300 261
217 209 202 198 195 198 208 208 200 201 205 213 225 241 264 281 292 296 303 305 304 303 304 305 308 305 303 301 302 299 291 287 287 283 279 274 272 279 282 279 280 267 289
207 203 199 194 192 196 203 203 201 205 211 222 234 249 266 277 289 296 300 300 299 302 303 307 307 304 305 308 304 297 288 279 274 275 276 280 283 271 267 264 261 264 242
196 198 194 190 193 197 200 204 207 213 221 232 244 257 268 281 293 297 299 297 298 301 303 305 303 304 309 305 301 298 296 289 278 267 267 271 273 282 259 256 260 262 258
190 186 186 193 200 204 204 210 217 223 231 239 249 260 274 289 296 299 298 297 299 301 301 301 304 305 307 302 300 300 302 303 304 294 273 267 267 261 260 251 246 244 247
182 187 192 198 207 212 220 222 225 229 233 239 250 268 283 294 298 297 296 298 299 301 302 301 302 302 302 301 299 296 294 300 294 292 289 279 265 251 243 242 239 242 242
75 127 200 211 217 218 221 222 218 220 232 248 266 279 289 295 297 295 299 299 299 298 299 302 302 304 303 298 298 295 298 302 295 290 285 276 271 259 238 235 235 232 237
130 102 96 127 173 180 184 196 211 236 262 276 284 290 295 296 298 300 299 295 294 294 299 300 303 306 305 305 305 303 301 296 288 284 280 276 271 266 259 244 234 231 234
240 219 217 222 233 232 233 247 251 267 278 287 295 294 294 295 298 299 297 296 296 299 298 299 301 304 307 308 307 305 303 298 292 284 279 278 275 271 262 255 250 245 240
262 237 223 230 243 241 256 262 277 288 291 294 293 290 293 298 301 301 299 299 301 300 301 303 306 309 310 309 305 302 296 290 286 285 283 283 278 267 259 252 244 245 237
207 211 222 233 236 251 266 281 286 288 296 295 295 298 306 310 311 311 310 307 305 305 306 303 307 309 308 307 309 311 307 301 294 290 285 280 273 266 258 250 236 230 230
201 201 206 219 245 260 267 267 281 283 284 292 299 309 315 312 313 312 308 302 305 306 299 304 307 310 314 315 314 312 308 300 295 293 287 280 272 263 254 242 231 220 221
216 223 233 239 251 263 276 281 278 281 283 282 299 307 306 305 310 308 303 303 306 303 304 312 316 318 314 312 311 303 297 292 287 282 280 275 270 264 253 239 228 218 215
235 238 250 261 265 271 277 281 293 289 286 279 292 298 299 303 309 306 306 310 315 318 319 319 315 314 312 313 312 305 300 296 288 279 271 266 262 257 249 238 225 215 211
248 246 245 255 261 260 267 291 299 306 317 317 319 309 307 306 309 312 320 325 324 322 322 320 318 317 317 315 309 306 302 297 288 276 265 255 253 249 244 238 226 214 208
232 231 236 245 244 256 290 324 325 329 327 326 320 318 318 313 316 320 323 323 323 323 324 322 320 319 319 316 312 308 306 300 294 281 264 263 254 243 239 234 224 214 213
186 172 133 105 187 337 3 342 336 335 326 315 318 325 321 323 326 324 326 328 328 329 328 326 325 324 321 317 311 308 303 301 299 289 272 262 246 232 232 229 222 210 212
139 122 96 56 105 73 10 346 325 324 321 327 337 343 342 338 333 334 333 335 338 335 337 336 334 329 324 319 321 321 321 316 305 292 271 253 232 223 222 217 209 201 199
175 150 82 103 102 35 353 336 335 342 352 3 1 2 0 357 353 351 350 348 348 350 347 346 339 335 338 341 339 333 324 333 317 294 252 218 216 209 203 204 196 196 190
182 172 97 133 95 4 352 357 17 29 34 34 29 26 23 19 17 13 10 10 8 5 3 357 353 353 6 4 359 352 340 318 338 140 146 152 166 181 178 178 185 179 191
159 138 133 130 82 26 47 64 67 67 63 58 53 46 41 36 33 31 27 28 24 21 18 14 9 14 28 36 26 20 39 61 109 134 128 154 156 163 174 181 170 179 182
135 138 131 113 108 100 92 86 80 74 69 62 56 51 47 45 42 39 36 37 36 32 30 27 24 29 54 52 45 58 36 36 47 143 129 152 173 166 157 176 177 177 180